Zurück zum Katalog

STARLINK-37591

AktivKommunikationSSO
NORAD 69033·PAYLOAD·🇺🇸 United States

Gestartet May 6, 2026 von Vandenberg Space Force Base

Loading…

Nächste Überflüge (nächste 24 Stunden)

TLE

AktuellSource: CelesTrak SupGP

Epoche: Sep 14, 2026, 23:26 UTC

1 69033C 26101J   26257.97687500  .00085412  00000+0  26499-2 0  2573
2 69033  97.2848 111.5254 0002210  93.3367 191.9365 15.33412435    12

Verfolge STARLINK-37591 in Echtzeit mit AllMySat

Download on the App Store